Location: Miles
(41.4492°N, 81.6087°W)
Time: 16:03:56
(UTC+00:00)

A-11 Canister half - Pass Details

Date: 18 September 2024
Orbit: 1515 x 1684 km, 47.2° (Epoch: 11 October)

Event Time Altitude Azimuth Distance (km) Brightness Sun altitude
Rises 05:48:08 0° 297° (WNW) 4,663 11.7 -46.4°
Reaches altitude 10° 05:51:15 10° 293° (WNW) 3,677 11.0 -46.3°
Enters shadow 05:51:29 11° 292° (WNW) 3,607 11.0 -46.3°
